This is the latest recevied weather packets stored in our database for station/object KR0L-13. If no packets are shown the sender has not sent any weather packets the latest 1 day(s).
| Time | Temp. | Humidity | Pressure | Rain* | Wind** | Luminosity | Snow |
|---|---|---|---|---|---|---|---|
| 1777974622 | 11.67° C | 55% | 1007 hPa | 0 mm | 6.71 m/s, 338° | - | - |
| 1777974022 | 11.67° C | 55% | 1006.9 hPa | 0 mm | 6.71 m/s, 338° | - | - |
| 1777973422 | 11.67° C | 53% | 1006.6 hPa | 0 mm | 7.15 m/s, 338° | - | - |
| 1777972822 | 12.22° C | 53% | 1006.5 hPa | 0 mm | 6.71 m/s, 338° | - | - |
| 1777972222 | 12.78° C | 53% | 1006.7 hPa | 0 mm | 6.26 m/s, 338° | - | - |
| 1777971622 | 12.78° C | 52% | 1006.5 hPa | 0 mm | 6.71 m/s, 338° | - | - |
| 1777971021 | 12.78° C | 53% | 1006.1 hPa | 0 mm | 7.6 m/s, 338° | - | - |
| 1777970421 | 13.33° C | 56% | 1006.4 hPa | 0 mm | 5.81 m/s, 338° | - | - |
| 1777969821 | 13.33° C | 56% | 1006.7 hPa | 0 mm | 5.81 m/s, 338° | - | - |
| 1777969221 | 13.33° C | 57% | 1007 hPa | 0 mm | 5.36 m/s, 338° | - | - |
| 1777968622 | 13.33° C | 59% | 1006.4 hPa | 0 mm | 6.26 m/s, 338° | - | - |
| 1777968022 | 13.33° C | 60% | 1005.7 hPa | 0 mm | 5.81 m/s, 338° | - | - |
| 1777967421 | 13.89° C | 62% | 1005.9 hPa | 0 mm | 5.36 m/s, 338° | - | - |
| 1777966822 | 13.89° C | 63% | 1006 hPa | 0 mm | 6.26 m/s, 338° | - | - |
| 1777966221 | 13.89° C | 63% | 1005.9 hPa | 0 mm | 5.81 m/s, 0° | - | - |
| 1777965621 | 13.89° C | 67% | 1005.8 hPa | 0 mm | 5.81 m/s, 338° | - | - |
| 1777965021 | 13.89° C | 69% | 1005.6 hPa | 0 mm | 6.26 m/s, 0° | - | - |
| 1777964421 | 13.89° C | 69% | 1005.1 hPa | 0 mm | 6.26 m/s, 338° | - | - |
| 1777963821 | 13.89° C | 71% | 1005.2 hPa | 0 mm | 4.92 m/s, 338° | - | - |
| 1777963221 | 13.89° C | 74% | 1005 hPa | 0 mm | 5.36 m/s, 338° | - | - |
| 1777962621 | 13.89° C | 75% | 1004.4 hPa | 0 mm | 4.47 m/s, 338° | - | - |
* Rain latest hour (hover to see other rain measurements)
** Current wind speed in m/s (hover to see current wind gust speed)